This is the latest recevied weather packets stored in our database for station/object K1RFS. If no packets are shown the sender has not sent any weather packets the latest 10 day(s).
| Time | Temp. | Humidity | Pressure | Rain* | Wind** | Luminosity | Snow |
|---|---|---|---|---|---|---|---|
| 1777673310 | 19.44° C | 21% | 1004.5 hPa | 0 mm | - | 510 W/m² | - |
| 1777673007 | 20° C | 21% | 1004.4 hPa | 0 mm | - | 520 W/m² | - |
| 1777672703 | 21.11° C | 20% | 1004.6 hPa | 0 mm | - | 526 W/m² | - |
| 1777672399 | 20° C | 22% | 1004.4 hPa | 0 mm | - | 535 W/m² | - |
| 1777672095 | 18.89° C | 22% | 1004.6 hPa | 0 mm | - | 544 W/m² | - |
| 1777671790 | 19.44° C | 22% | 1004.6 hPa | 0 mm | - | 551 W/m² | - |
| 1777671487 | 21.11° C | 21% | 1004.6 hPa | 0 mm | - | 559 W/m² | - |
| 1777671183 | 20° C | 22% | 1004.8 hPa | 0 mm | - | 565 W/m² | - |
| 1777670879 | 19.44° C | 22% | 1004.6 hPa | 0 mm | - | 576 W/m² | - |
| 1777670576 | 18.89° C | 22% | 1004.7 hPa | 0 mm | - | 586 W/m² | - |
| 1777670273 | 19.44° C | 22% | 1004.7 hPa | 0 mm | - | 592 W/m² | - |
| 1777669970 | 18.89° C | 22% | 1004.7 hPa | 0 mm | - | 599 W/m² | - |
| 1777669667 | 20° C | 21% | 1004.7 hPa | 0 mm | - | 601 W/m² | - |
| 1777669364 | 21.11° C | 20% | 1004.7 hPa | 0 mm | - | 607 W/m² | - |
| 1777669060 | 21.11° C | 21% | 1004.8 hPa | 0 mm | - | 615 W/m² | - |
| 1777668757 | 20° C | 22% | 1004.8 hPa | 0 mm | - | 621 W/m² | - |
| 1777668454 | 18.33° C | 22% | 1004.8 hPa | 0 mm | - | 626 W/m² | - |
| 1777668151 | 18.89° C | 23% | 1004.9 hPa | 0 mm | - | 630 W/m² | - |
| 1777667847 | 18.89° C | 21% | 1005 hPa | 0 mm | - | 634 W/m² | - |
| 1777667545 | 18.33° C | 23% | 1004.9 hPa | 0 mm | - | 641 W/m² | - |
| 1777667241 | 20° C | 21% | 1005 hPa | 0 mm | - | 643 W/m² | - |
| 1777666938 | 18.89° C | 22% | 1005.2 hPa | 0 mm | - | 646 W/m² | - |
| 1777666635 | 18.89° C | 21% | 1005 hPa | 0 mm | - | 649 W/m² | - |
| 1777666332 | 18.89° C | 23% | 1004.8 hPa | 0 mm | - | 651 W/m² | - |
| 1777666029 | 17.78° C | 23% | 1005.2 hPa | 0 mm | - | 655 W/m² | - |
* Rain latest hour (hover to see other rain measurements)
** Current wind speed in m/s (hover to see current wind gust speed)